Погода Александров Гай

Погода Александров Гай : погода сейчас, прогноз погоды и архив. Всё, что Вы хотите узнать о погоде Александров Гай!

Хотите узнать прогноз погоды Александров Гай? Тогда Вам сюда: Погода Александров Гай

Поиск расширенной информации на нашем сайте:

Другие новости

Новости СМИ2

Главная страница сайта

Новости сайта

03.07.2017

Напоминаем, что на нашем специализированном сайте Метеоцентр.Азия вы можете получить высокодетализированные автоматические прогнозы погоды по пунктам России, СНГ и мира в авиационном формате (включающие направление и скорость ветра, видимость, явления погоды, количество и форму облачности, нижнюю и верхнюю границу облачности).


Погода Александров Гай - сегодня

Время (UTC), дата Ветер
(°,м/с) 
Видим.   Явления Облачность Т
(°С)
Тd
(°С)
f(%) Тe
(°С)
Pmin
(гПа)
dP
(гПа)
Po
(мм)
O2
(г/м3)
Тmin Tmax R s Состояние
почвы
00 18.09.17 070 (В) 10 км    3/0 верхняя 
[Ci sp]
+14.6 +5.8 55 +15  1022.1  0.6  764  291           
03 18.09.17 090 (В) 10 км    3/0 верхняя 
[Ci sp]
+13.3 +6.4 63 +14  1021.9  -0.2  764  293  +13.3        сухая 
06 18.09.17 110 (В) 10 км    ясно 
+23.2 +5.6 32 +23  1021.9  0.1  764  283           
09 18.09.17 160 (Ю) 10 км    ясно 
+29.2 +5.3 22 +29  1020.9  -0.9  764  277           
12 18.09.17 230 (ЮЗ) 10 км    3/0 верхняя 
[Ci fib]
+32.2 +7 21 +32  1019.1  -1.8  762  274           
18 18.09.17 110 (В) 10 км    ясно 
+21.9 +9.3 45 +22  1018.5  -0.1  762  283           
21 18.09.17 180 (Ю) 10 км    ясно 
+18.1 +9.8 58 +20  1018.8  0.3  762  286           
00 19.09.17 160 (Ю) 10 км    ясно 
+15.2 +9.4 68 +15  1018.9  762  289           
03 19.09.17 160 (Ю) 10 км    3/0 верхняя 
[Ci fib]
+14.6 +9.2 70 +15  1019.2  0.3  762  290  +14.3        сухая 
06 19.09.17 180 (Ю) 10 км    3/0 верхняя 
[Ci fib]
+27.7 +8.5 30 +28  1019.5  0.5  763  278           
09 19.09.17 180 (Ю) 10 км    3/0 средняя, верхняя 
[Ac As|Ci fib]
+32.9 +9.4 24 +33  1018.9  -0.6  762  273           
12 19.09.17 180 (Ю) 7-10{15}  10 км    3/0 средняя, верхняя 
[Ac As|Ci fib]
+33.4 +6.4 19 +33  1017.5  -1.4  761  272           
15 19.09.17 160 (Ю) 3{12}  10 км    ясно 
+30.1 +8.4 26 +30  1017.4  -0.1  761  275    +33.5       
18 19.09.17 180 (Ю) 10 км    ясно 
+21.1 +8.6 45 +21  1017.3  -0.2  761  283           
21 19.09.17 180 (Ю) 10 км    ясно 
+17.9 +8.1 53 +18  1017.5  0.2  761  286           
00 20.09.17 180 (Ю) 10 км    ясно 
+15.6 +9.2 66 +16  1017.6  761  288           
03 20.09.17 140 (ЮВ) 10 км    ясно 
+13.8 +8.9 72 +15  1018  0.4  761  290  +13.8        сухая 
06 20.09.17 090 (В) 10 км    1/0 верхняя 
[Ci fib]
+24.2 +9.3 39 +24  1018.8  0.9  762  280           
09 20.09.17 090 (В) 10 км    1/0 верхняя 
[Ci fib]
+31.9 +9.5 25 +32  1018.3  -0.4  762  273           
12 20.09.17 200 (Ю) 10 км    ясно 
+33.9 +5.8 17 +34  1017.2  -1.1  761  272           
15 20.09.17 тихо ()   10 км    ясно 
+27.5 +9.5 32 +28  1017.3  0.1  761  277    +35       
18 20.09.17 050 (СВ) 10 км    1/0 верхняя 
[Ci fib]
+22.2 +3.2 29 +22  1018.3  0.9  762  283           
21 20.09.17 050 (СВ) 10 км    1/0 верхняя 
[Ci fib]
+17.1 +9.3 60 +18  1018.4  0.1  762  287           
00 21.09.17 050 (СВ) 10 км    ясно 
+14.2 +7.6 64 +14  1019  0.5  762  291           
03 21.09.17 070 (В) 10 км    1/0 верхняя 
[Ci fib]
+12.6 +6.2 65 +13  1020.3  1.3  763  293  +9.7        сухая 
Время (UTC), дата Ветер
(°,м/с) 
Видим.   Явления Облачность Т
(°С)
Тd
(°С)
f(%) Тe
(°С)
Pmin
(гПа)
dP
(гПа)
Po
(мм)
O2
(г/м3)
Тmin Tmax R s Состояние
почвы

Для получения пояснительной информации подведите курсор к названию столбца.

ПОГОДА Александров Гай - архив

Всё, что Вы хотите узнать о погоде Александров Гай - удобно и подробно!

Выберите нужную дату (начиная с 1 января 2015* года) и нажмите кнопку "Найти".
Будут отображены архивные сводки погоды по пункту Александров Гай, начиная с указанной даты.


Отображать данные в формате CSV (для использования в таблицах Excel)


Внимание! Наш архив погоды предназначен исключительно для личного некоммерческого использования в познавательных целях. Если Вам необходимы официальные справки о состоянии погоды (для производственных, юридических, коммерческих и т.п. целей), обращайтесь в органы Росгидромета.

*Примечание: данная дата относится к архиву по метеостанциям СССР (Россия, СНГ, Балтия).
Архив по метеостанциям Зарубежной Европы и Азии (кроме Китая) хранится 10 дней, по другим регионам земного шара (Китай, Африка, Америка, Австралия, Океания) - 1 день.

Александров Гай - район местоположения метеостанции


Название, широта, долгота, высота метеостанции:
Александров Гай 50.2°ш. 48.6°д. 25 м над ур. моря [Российская Федерация]

Дополнительная информация

В oтличие oт бoльшинства пoгoдных сайтoв мы публикуем пoдрoбную метеoинфoрмацию в детальнoм прoфессиoнальнoм фoрмате.

Характеристики температуры и влажнoсти вoздуха измеряются на высoте 2 м в тени вдали oт зданий и деревьев.
Скoрoсть ветра измеряется на высoте 10 м (на урoвне рoста челoвека скoрoсть ветра ниже в 1.5-2 раза). Если метеoстанция нахoдится в гoрoде или в лесу, тo скoрoсть ветра занижена на 2-4 м/с пo сравнению с oткрытым местoм. Скoрoсть ветра над акватoриями крупных рек и oзёр, а также на вершинах хoлмoв на 2-5 м/с выше, чем в oбычных услoвиях.
Атмoсфернoе давление в разных тoчках местнoсти мoжет значительнo oтличаться oт давления на метеoстанции, в зависимoсти oт услoвий рельефа (при пoдъёме на 10 м давление пoнижается примернo на 1 мм рт.ст.).